Weather in Altachey

Russia / Republic of Buryatia     50°42′27″N   107°32′11″E
temp.,
°C
wind,
m/s
gust,
m/s
humid.,
%
clouds,
%
prec.,
mm/h
press.,
hPa
HPBL,
m
18 april, sun
sun1823:00+7ne014296 0.0 100110
02:00+2nw61483100 0.0 1009640
05:00+1nw487694 0.0 1012685
08:00−1nnw6106098 0.0 1019895
11:00+3nnw574094 0.0 10201519
14:00+5nnw56285 0.0 10181749
17:00+5n44234 0.0 10181562
20:000nne352993 0.0 102082
19 april, mon
mon1923:00−2ne222935 0.0 102121
02:00−3e22344 0.0 102116
05:00−4e11375 0.0 102110
08:000se122811 0.0 1020218
11:00+7s24255 0.0 1016714
14:00+13ssw46264 0.0 10101451
17:00+15sw58220 0.0 10072126
20:00+9sse223717 0.0 100723
20 april, tue
tue2023:00+6e1140100 0.0 100631
02:00+6ese1239100 0.0 100435
05:00+6nnw324177 0.0 100432
08:00+6nnw454750 0.0 1006339
11:00+9nnw22373 0.0 1006740
14:00+14nw33280 0.0 10031141
17:00+14nnw322813 0.0 10021113
20:00+4n6114768 0.0 1007444
21 april, wed
wed2123:00+2n3556100 0.0 1010318
02:000n47615 0.1 1011328
05:00−3n48725 0.0 1012356
08:00−1n576928 0.0 1014553
11:00+3n454896 0.0 10141063
14:00+4n6643100 0.0 10131246
17:00+2n785174 0.0 10171110
20:00−1n5966100 0.0 1021760
22 april, thu
thu2223:00−2n4955100 0.0 1023633
02:00−5nne236899 0.0 102553
05:00−5nne2371100 0.0 102646
08:00−1nne3641100 0.0 1026656
11:00+3e4629100 0.6 10241050
14:00+2e356393 2.2 1025769
17:00+5ene455285 0.0 1022928
20:00+3n2361100 0.0 102467